Temp_Advection
nan nan nan nan nan nan nan nan nan nan nan nan nan nan nan nan nan nan nan nan nan nan
nan 0 0 0 0 0 0 0 0 0 0 0 0 -0 -0 0 0 0 0 0 0 nan
nan -0 -0 -0 -0 0 0 0 0 0 0 0 0 -0 -0 0 0 0 0 0 0 nan
nan 0 -0 -0 0 0 0 0 0 0 0 0 0 0 0 0 0 0 0 0 0 nan
nan 0 0 -0 0 0 0 0 0 0 0 0 0 0 0 0 0 0 0 0 0 nan
nan 0 0 0 1 0 0 0 0 -0 -0 0 0 0 0 0 0 0 0 0 0 nan
nan 0 0 0 0 0 0 0 -0 -0 0 0 0 0 0 0 0 0 0 0 0 nan
nan 0 0 0 0 0 0 0 -0 -0 -0 0 0 0 0 0 0 0 0 0 0 nan
nan 0 0 0 0 0 1 1 0 -0 -0 -0 -0 0 1 0 0 0 0 0 1 nan
nan 0 0 1 1 0 0 0 1 0 -0 -0 -0 -0 0 0 0 0 0 0 0 nan
nan 0 0 0 0 1 1 0 0 0 0 0 -0 -0 0 1 0 1 1 -0 0 nan
nan -0 -0 0 0 1 1 1 1 1 0 0 0 -0 0 1 0 0 1 0 -0 nan
nan 0 -0 0 -0 0 0 1 1 1 1 1 0 1 1 1 1 -0 -0 -0 0 nan
nan nan nan nan nan nan nan nan nan nan nan nan nan nan nan nan nan nan nan nan nan nan
Wind_Speed
14 14 14 13 13 13 13 13 12 12 12 12 13 13 13 13 12 12 12 12 12 11
16 16 16 16 16 16 15 15 15 14 14 13 14 14 14 14 14 13 14 14 14 14
19 18 18 19 19 19 18 18 18 17 16 15 15 15 15 15 15 15 15 16 16 15
21 22 21 22 22 22 21 21 21 19 18 17 17 16 17 16 17 18 17 17 17 17
20 22 25 26 26 25 25 25 25 23 22 21 20 19 19 19 19 19 20 19 19 19
19 22 25 26 27 28 28 28 28 28 27 25 23 23 22 21 21 21 21 21 21 20
20 22 24 26 28 29 30 31 32 32 31 29 27 26 25 23 23 23 23 22 23 22
23 25 27 30 31 32 32 32 32 34 34 33 31 30 28 26 25 25 24 24 24 23
23 25 26 28 29 30 32 32 31 33 35 35 34 32 30 28 28 26 27 25 24 24
20 22 23 25 27 30 32 32 33 33 34 35 36 35 33 32 31 28 27 27 25 25
21 22 22 23 24 26 28 30 32 33 33 33 34 35 35 34 32 32 28 27 26 26
22 23 23 24 24 24 25 27 29 31 31 34 33 33 35 34 34 34 29 28 26 26
22 23 23 22 22 22 24 25 25 26 27 29 30 29 30 32 34 34 31 27 26 26
23 22 21 22 21 22 22 23 24 25 25 26 26 25 27 29 34 35 33 26 26 26
Wind_Direction
259 264 267 273 276 279 283 289 292 294 298 301 300 301 301 302 305 310 313 314 312 309
264 268 272 276 275 278 282 285 286 289 291 293 296 296 297 300 302 304 305 305 305 306
274 272 273 275 276 276 276 278 281 282 285 288 291 294 297 297 296 296 295 297 299 299
278 276 279 280 279 276 274 275 276 278 279 281 284 289 292 293 292 291 291 290 291 293
285 281 279 280 282 278 276 274 276 276 276 277 280 283 286 289 289 289 289 289 287 289
294 289 288 286 284 281 277 274 272 272 273 275 275 276 280 283 286 288 287 287 285 287
303 300 297 295 290 285 282 278 273 272 273 272 272 273 275 280 283 286 286 284 282 283
305 303 299 296 294 293 289 285 281 275 272 270 269 270 272 275 277 281 284 283 283 284
298 294 291 291 291 291 288 285 283 277 273 270 269 270 270 271 273 276 278 280 282 282
304 300 299 296 292 290 289 289 286 283 280 276 272 271 270 269 271 272 277 279 279 278
309 305 303 300 297 294 290 289 288 285 283 281 278 274 271 268 268 271 274 276 280 278
317 312 309 304 299 296 291 287 286 286 286 284 285 279 272 269 265 267 272 272 276 276
329 322 317 311 307 303 296 292 287 283 281 281 280 276 273 267 268 265 269 278 272 273
333 328 324 320 318 312 307 301 296 292 289 285 282 279 273 267 266 271 279 275 273 272
Height
1521 1521 1521 1521 1521 1520 1520 1519 1518 1517 1516 1515 1514 1513 1511 1510 1508 1507 1506 1504 1503 1502
1517 1517 1518 1518 1518 1517 1517 1516 1515 1515 1513 1512 1511 1510 1509 1507 1506 1504 1503 1501 1500 1499
1513 1513 1514 1513 1513 1513 1513 1512 1511 1511 1510 1509 1508 1506 1505 1503 1502 1500 1499 1497 1497 1496
1508 1508 1509 1509 1509 1509 1508 1508 1507 1506 1505 1504 1503 1502 1501 1499 1498 1496 1495 1493 1491 1490
1503 1503 1503 1503 1503 1503 1502 1502 1502 1501 1500 1499 1498 1496 1495 1494 1492 1491 1489 1488 1487 1485
1497 1497 1496 1495 1495 1495 1495 1495 1494 1494 1493 1493 1492 1491 1490 1489 1488 1486 1485 1483 1481 1480
1493 1492 1490 1489 1488 1488 1488 1488 1487 1487 1487 1487 1487 1486 1485 1483 1482 1481 1479 1477 1476 1474
1490 1488 1486 1484 1482 1482 1481 1480 1480 1479 1479 1479 1479 1478 1478 1477 1476 1474 1474 1473 1471 1470
1483 1480 1478 1476 1474 1473 1471 1471 1471 1469 1470 1470 1470 1470 1470 1469 1469 1468 1466 1464 1463 1463
1476 1474 1472 1470 1468 1466 1465 1464 1463 1463 1462 1461 1461 1462 1462 1462 1460 1460 1459 1458 1456 1454
1471 1468 1465 1463 1460 1458 1457 1456 1455 1454 1453 1453 1453 1455 1455 1454 1453 1452 1452 1451 1450 1448
1465 1462 1459 1456 1454 1451 1448 1447 1445 1444 1445 1445 1446 1446 1447 1448 1446 1443 1443 1442 1442 1440
1461 1457 1453 1450 1447 1444 1442 1439 1436 1435 1434 1434 1433 1435 1437 1439 1438 1437 1436 1433 1433 1432
1458 1454 1450 1446 1443 1440 1437 1433 1431 1428 1428 1427 1426 1426 1428 1430 1428 1428 1427 1425 1424 1425